Weather History for Decatur, AL

Change the Weather History Date:

Saturday, January 19, 2013

  Actual Average Record
Temperature  
Mean Temperature 40 °F -  
Max Temperature 55 °F 48 °F 70 °F (1974)
Min Temperature 26 °F 30 °F 3 °F (1977)
Degree Days  
Heating Degree Days 24    
Moisture  
Dew Point 30 °F    
Average Humidity 69    
Maximum Humidity 96    
Minimum Humidity 40    
Precipitation  
Precipitation 0.01 in - - ()
Sea Level Pressure  
Sea Level Pressure 30.33 in    
Wind  
Wind Speed 3 mph (South)    
Max Wind Speed 14 mph    
Max Gust Speed -    
Visibility 10 miles    
Events      
Averages and records for this station are not official NWS values.
T = Trace of Precipitation, MM = Missing Value Source: NWS Daily Summary

Daily Weather History Graph

Daily Weather History Graph

Search for Another Location

Airport:

Trip Planner

Search our weather history database for the weather conditions in past years. The results will help you decide how hot, cold, wet, or windy it might be!

Date:

Astronomy

Jan. 19, 2013 Rise Set
Actual Time 6:53 AM CST 5:04 PM CST
Civil Twilight 6:25 AM CST 5:31 PM CST
Nautical Twilight 5:55 AM CST 6:02 PM CST
Astronomical Twilight 5:25 AM CST 6:32 PM CST
Moon 11:27 AM CST (1/19) 12:30 AM CST (1/19)
Length of Visible Light 11h 05m
Length of Day
10h 11m
First Quarter, 57% of the Moon is Illuminated
Jan 19
First Quarter
Jan 26
Full
Feb 3
Last Quarter
Feb 10
New
Feb 17
First Quarter

Hourly Weather History & Observations

Time (CST) Temp. Windchill Dew Point Humidity Pressure Visibility Wind Dir Wind Speed Gust Speed Precip Events Conditions
12:53 AM 28.9 °F - 27.0 °F 92% 30.42 in 10.0 mi Calm Calm - N/A   Clear
1:53 AM 28.0 °F - 27.0 °F 96% 30.43 in 10.0 mi Calm Calm - N/A   Clear
2:53 AM 30.0 °F 24.1 °F 28.0 °F 92% 30.41 in 10.0 mi ESE 5.8 mph - N/A   Clear
3:53 AM 32.0 °F 28.7 °F 28.9 °F 88% 30.39 in 10.0 mi ESE 3.5 mph - N/A   Clear
4:53 AM 27.0 °F - 26.1 °F 96% 30.40 in 10.0 mi Calm Calm - N/A   Clear
5:53 AM 26.1 °F 21.9 °F 25.0 °F 96% 30.41 in 9.0 mi North 3.5 mph - N/A   Clear
6:53 AM 27.0 °F - 24.1 °F 89% 30.41 in 10.0 mi Calm Calm - N/A   Clear
7:53 AM 33.1 °F - 30.0 °F 89% 30.41 in 10.0 mi Calm Calm - 0.01 in   Clear
8:53 AM 42.1 °F 38.4 °F 33.1 °F 70% 30.42 in 10.0 mi SE 5.8 mph - N/A   Clear
9:53 AM 46.9 °F - 33.1 °F 59% 30.43 in 10.0 mi South 8.1 mph - N/A   Clear
10:53 AM 51.1 °F - 32.0 °F 48% 30.39 in 10.0 mi SSW 11.5 mph - N/A   Clear
11:53 AM 52.0 °F - 30.9 °F 45% 30.34 in 10.0 mi SSW 13.8 mph - N/A   Clear
12:53 PM 54.0 °F - 32.0 °F 43% 30.30 in 10.0 mi South 9.2 mph - N/A   Clear
1:53 PM 54.0 °F - 30.0 °F 40% 30.28 in 10.0 mi SSW 8.1 mph - N/A   Clear
2:53 PM 55.0 °F - 30.9 °F 40% 30.26 in 10.0 mi SSW 8.1 mph - N/A   Clear
3:53 PM 55.0 °F - 30.9 °F 40% 30.25 in 10.0 mi South 8.1 mph - N/A   Clear
4:53 PM 48.9 °F - 35.1 °F 59% 30.25 in 10.0 mi South 6.9 mph - N/A   Clear
5:53 PM 46.9 °F - 32.0 °F 56% 30.26 in 10.0 mi SSE 3.5 mph - N/A   Clear
6:53 PM 45.0 °F 42.6 °F 33.1 °F 63% 30.25 in 10.0 mi South 4.6 mph - N/A   Clear
7:53 PM 44.1 °F - 32.0 °F 63% 30.24 in 10.0 mi North - - N/A   Clear
8:53 PM 44.1 °F - 30.9 °F 60% 30.25 in 10.0 mi Calm Calm - N/A   Clear
9:53 PM 39.0 °F - 30.9 °F 73% 30.24 in 10.0 mi Calm Calm - N/A   Clear
10:53 PM 39.0 °F 36.8 °F 30.9 °F 73% 30.24 in 10.0 mi South 3.5 mph - N/A   Clear
11:53 PM 35.1 °F - 30.9 °F 85% 30.23 in 10.0 mi Calm Calm - N/A   Clear